• Processing (Info)

  • MPEC 2022-M92 : 2022 MS2

    The following Minor Planet Electronic Circular may be linked-to from your own Web pages, but must not otherwise be redistributed electronically.

    A form allowing access to any MPEC is at the bottom of this page.


    Read MPEC 2022-M91 Read MPEC 2022-M93


    M.P.E.C. 2022-M92                                 Issued 2022 June 28, 11:21 UT
    
         The Minor Planet Electronic Circulars contain information on unusual
             minor planets and routine data on comets.  They are published
        on behalf of Division F of the International Astronomical Union by the
              Minor Planet Center, Smithsonian Astrophysical Observatory,
                              Cambridge, MA 02138, U.S.A.
    
                 Prepared using the Tamkin Foundation Computer Network
    
                                  MPC@CFA.HARVARD.EDU
                URL https://www.minorplanetcenter.net/    ISSN 1523-6714
    
                                    2022 MS2                                 
    
    
    Observations:
         K22M02S* C2022 06 24.56035921 55 33.311-08 19 12.75         21.83wUEM092F52
         K22M02S  C2022 06 24.57058621 55 34.104-08 20 14.99         21.65wUEM092F52
         K22M02S  C2022 06 24.59108021 55 35.680-08 22 19.76         21.34wUEM092F52
         K22M02S ^C2022 06 25.50707921 57 04.786-09 58 16.66         21.38GVEM092568
         K22M02S ^C2022 06 25.50905421 57 04.945-09 58 29.39         21.53GVEM092568
         K22M02S ^C2022 06 25.51005921 57 05.025-09 58 35.91         21.19GVEM092568
         K22M02S KC2022 06 27.34779322 00 04.66 -13 27 22.9          21.5 VuEM092H21
         K22M02S KC2022 06 27.36173122 00 05.84 -13 29 02.9          21.8 VuEM092H21
         K22M02S KC2022 06 27.36315022 00 05.94 -13 29 13.1          21.7 VuEM092H21
         K22M02S KC2022 06 27.36546722 00 06.15 -13 29 30.1          21.4 VuEM092H21
         K22M02S |C2022 06 28.24965 22 01 36.51 -15 16 58.2          21.3 GVEM092807
         K22M02S |C2022 06 28.25552 22 01 37.03 -15 17 42.6          21.3 GVEM092807
         K22M02S |C2022 06 28.26140 22 01 37.52 -15 18 27.2          21.3 GVEM092807
    
    Observer details:
    568 Mauna Kea.  Observers R. Wainscoat, L. Wells, H. Flewelling.  Measurers R.
        Weryk, R. Wainscoat.  3.6-m Canada-France-Hawaii Telescope + CCD.
    807 Cerro Tololo Observatory, La Serena.  Observers T. Linder, R. Holmes, L.
        Horn.  1.00-m f/10.0 astrograph + CCD.
    F52 Pan-STARRS 2, Haleakala.  Observers J. Bulger, T. Lowe, A. Schultz, I.
        Smith.  Measurers K. Chambers, S. Chastel, T. de Boer, J. Fairlamb, H.
        Gao, M. Huber, C.-C. Lin, E. Magnier, Y. Ramanjooloo, R. Wainscoat, R.
        Weryk.  1.8-m Ritchey-Chretien + CCD.
    H21 Astronomical Research Observatory, Westfield.  Observer R. Holmes.
        Measurers T. Linder, R. Holmes, L. Horn.  1.3-m f/4.0 astrograph + CCD.
    
    Orbital elements:
    2022 MS2                                                 Earth MOID = 0.1213 AU
    Epoch 2022 Aug. 9.0 TT = JDT 2459800.5                  Veres                   
    M 239.93153              (2000.0)            P               Q                  
    n   1.11020481     Peri.  352.39172     -0.09547611     -0.89414400             
    a   0.9237065      Node   102.29939     +0.93525117     -0.23107101             
    e   0.2360704      Incl.   26.60002     +0.34086590     +0.38355274             
    P   0.89           H   23.21          G   0.15           U   8                  
    Residuals in seconds of arc
    220624 F52  0.1-  0.1-    220625 568  0.0   0.0     220628 807  0.0   0.0
    220624 F52  0.1-  0.2+    220627 H21  0.1-  0.2+    220628 807  0.2+  0.0
    220624 F52 (0.2-  0.7+)   220627 H21  0.1-  0.3+    220628 807  0.1-  0.1-
    220625 568  0.0   0.0     220627 H21  0.4-  0.3+
    220625 568  0.0   0.0     220627 H21  0.2-  0.0
    
    Ephemeris:
    2022 MS2                 a,e,i = 0.92, 0.24, 27                  q = 0.7056
    Date    TT    R. A. (2000) Decl.     Delta      r    Elong.  Phase     V
    2022 05 29    21 17 26.2 +14 20 04   0.3698  1.1330    99.2    62.0    23.5
    ...
    2022 06 13    21 38 21.9 +05 48 05   0.2685  1.1415   111.5    55.9    22.7
    ...
    2022 06 21    21 50 02.7 -02 52 35   0.2176  1.1411   120.1    50.4    22.1
    ...
    2022 06 27    21 59 29.2 -12 45 31   0.1847  1.1385   127.5    45.1    21.5
    2022 06 28    22 01 09.4 -14 45 59   0.1799  1.1379   128.8    44.2    21.5
    2022 06 29    22 02 51.8 -16 53 11   0.1754  1.1372   129.9    43.3    21.4
    ...
    2022 07 05    22 14 14.0 -31 54 39   0.1550  1.1321   135.3    39.2    21.0
    ...
    2022 07 13    22 35 57.1 -55 30 28   0.1505  1.1223   131.7    42.5    21.0
    ...
    2022 07 28    03 28 32.0 -85 29 28   0.2030  1.0950   107.9    62.0    22.2
    
    M. P. C. Staff               (C) Copyright 2022 MPC           M.P.E.C. 2022-M92
    


    Read MPEC 2022-M91 Read MPEC 2022-M93


    MPEC number:

    Enter an MPEC number in one of the following forms:

    • 1997-B01 (the full form)
    • J97B01 (the packed version of the full form)
    • B01 (the abbreviated form)